Location: Newark
(41.6500°N, 71.4833°W)
Time: 03:28:12
(UTC+00:00)

A-11 Canister half - Pass Details

Date: 23 January 2020
Orbit: 1517 x 1683 km, 47.2° (Epoch: 17 February)

Event Time Altitude Azimuth Distance (km) Brightness Sun altitude
Rises 09:33:40 0° 292° (WNW) 4,670 - -28.3°
Reaches altitude 10° 09:36:43 10° 294° (WNW) 3,682 - -27.7°
Exits shadow 09:42:24 43° 301° (WNW) 2,025 9.2 -26.7°
Maximum altitude 09:46:01 80° 21° (NNE) 1,547 8.9 -26.0°
Drops below altitude 10° 09:55:24 10° 109° (ESE) 3,721 12.0 -24.3°
Sets 09:58:30 0° 111° (ESE) 4,722 12.8 -23.7°
